CW9454 Weather Reports


Display with metric or nautical units.
time (UTC)temp
F
wind
direction
speed
MPH
gust
MPH
rain 1hr
in
rain 24hr
in
rain mn
in
humidity
%
barometer
mb
20260509182029 65 263 0.0 0.0 0.00 0.00 0.00 76 1010.2
20260509181023 65 263 0.0 0.0 0.00 0.00 0.00 75 1010.5
20260509180050 65 263 0.0 0.0 0.00 0.00 0.00 75 1010.5
20260509175052 65 263 0.0 0.0 0.00 0.00 0.00 75 1010.5
20260509174016 65 263 0.0 0.0 0.00 0.00 0.00 74 1010.5
20260509173029 65 263 0.0 0.0 0.00 0.00 0.00 73 1010.5
20260509172024 66 263 0.0 0.0 0.00 0.00 0.00 72 1010.5
20260509171018 66 263 0.0 0.0 0.00 0.00 0.00 71 1010.7
20260509170023 66 263 0.0 0.0 0.00 0.00 0.00 71 1010.6
20260509165017 66 263 0.0 0.0 0.00 0.00 0.00 71 1010.5
20260509164031 66 263 0.0 0.0 0.00 0.00 0.00 70 1010.6
20260509163046 67 263 0.0 0.0 0.00 0.00 0.00 69 1010.6
20260509162018 67 263 0.0 0.0 0.00 0.00 0.00 68 1010.8
20260509161033 67 263 0.0 0.0 0.00 0.00 0.00 66 1010.9
20260509160020 68 263 0.0 1.0 0.00 0.00 0.00 66 1011.0
20260509155014 68 263 0.0 1.0 0.00 0.00 0.00 67 1011.0
20260509154024 68 263 0.0 1.0 0.00 0.00 0.00 68 1010.9
20260509153038 68 262 0.0 1.0 0.00 0.00 0.00 65 1011.1
20260509152022 67 262 0.0 3.0 0.00 0.00 0.00 68 1011.2
20260509151012 66 262 0.0 1.0 0.00 0.00 0.00 69 1011.5
20260509150019 65 262 0.0 4.0 0.00 0.00 0.00 70 1011.8
20260509145034 64 260 0.0 4.0 0.00 0.00 0.00 69 1011.8
20260509144033 64 261 0.0 3.0 0.00 0.00 0.00 69 1011.8
20260509143017 64 256 0.0 5.0 0.00 0.00 0.00 69 1011.8
20260509142032 64 265 1.0 6.0 0.00 0.00 0.00 69 1011.8
20260509141025 63 243 1.0 4.0 0.00 0.00 0.00 71 1011.7
20260509135035 63 251 0.0 4.0 0.00 0.00 0.00 71 1011.8
20260509134014 63 246 0.0 3.0 0.00 0.00 0.00 71 1011.8
20260509133100 62 246 1.0 5.0 0.00 0.00 0.00 71 1011.7
20260509132025 62 238 1.0 4.0 0.00 0.00 0.00 71 1011.8
20260509131015 61 252 0.0 6.0 0.00 0.00 0.00 72 1011.6
20260509130050 61 165 0.0 4.0 0.00 0.00 0.00 72 1011.5
20260509125041 61 145 1.0 8.0 0.00 0.00 0.00 72 1011.5
20260509124013 61 142 0.0 5.0 0.00 0.00 0.00 72 1011.5
20260509123044 60 200 1.0 6.0 0.00 0.00 0.00 73 1011.5
20260509122017 60 119 0.0 3.0 0.00 0.00 0.00 73 1011.4
20260509121031 60 113 1.0 5.0 0.00 0.00 0.00 72 1011.4
20260509120039 60 100 1.0 6.0 0.00 0.00 0.00 72 1011.5
20260509115101 60 182 1.0 9.0 0.00 0.00 0.00 72 1011.5
20260509114025 59 159 1.0 6.0 0.00 0.00 0.00 72 1011.4
20260509113020 59 113 1.0 7.0 0.00 0.00 0.00 72 1011.4
20260509112053 59 186 1.0 7.0 0.00 0.00 0.00 72 1011.4
20260509111026 59 221 0.0 3.0 0.00 0.00 0.00 71 1011.4
20260509110042 59 234 0.0 5.0 0.00 0.00 0.00 71 1011.4
20260509105025 59 157 0.0 3.0 0.00 0.00 0.00 69 1011.3
20260509104020 59 154 0.0 0.0 0.00 0.00 0.00 67 1011.2
20260509103054 59 154 0.0 1.0 0.00 0.00 0.00 67 1011.4
20260509102026 59 153 0.0 0.0 0.00 0.00 0.00 67 1011.3
20260509101022 59 153 0.0 2.0 0.00 0.00 0.00 66 1011.0
20260509100057 59 170 1.0 4.0 0.00 0.00 0.00 67 1011.1
20260509095019 59 165 0.0 0.0 0.00 0.00 0.00 66 1011.2
20260509094026 59 165 0.0 3.0 0.00 0.00 0.00 66 1011.2
20260509093020 59 165 0.0 5.0 0.00 0.00 0.00 66 1011.3
20260509092033 59 165 0.0 5.0 0.00 0.00 0.00 66 1011.2
20260509091027 59 186 0.0 5.0 0.00 0.00 0.00 67 1011.1
20260509090015 59 185 0.0 3.0 0.00 0.00 0.00 66 1011.2
20260509085029 59 185 0.0 3.0 0.00 0.00 0.00 66 1011.3
20260509084022 59 186 1.0 4.0 0.00 0.00 0.00 66 1011.5
20260509083036 59 197 1.0 6.0 0.00 0.00 0.00 66 1011.6
20260509082020 59 187 0.0 4.0 0.00 0.00 0.00 66 1011.8
20260509081013 59 186 1.0 3.0 0.00 0.00 0.00 66 1011.9
20260509080020 59 186 0.0 5.0 0.00 0.00 0.00 66 1011.8
20260509075014 58 182 1.0 5.0 0.00 0.00 0.00 67 1011.8
20260509074027 58 178 0.0 3.0 0.00 0.00 0.00 67 1011.8
20260509073022 58 185 1.0 5.0 0.00 0.00 0.00 68 1011.7
20260509072017 58 183 0.0 3.0 0.00 0.00 0.00 68 1011.8
20260509071030 58 184 0.0 1.0 0.00 0.00 0.00 69 1011.8
20260509070017 57 184 0.0 4.0 0.00 0.00 0.00 69 1012.0
20260509065052 57 183 0.0 3.0 0.00 0.00 0.00 70 1012.0
20260509064024 57 182 0.0 3.0 0.00 0.00 0.00 70 1011.9
20260509063018 57 182 0.0 0.0 0.00 0.00 0.00 70 1012.2
20260509062031 57 182 0.0 0.0 0.00 0.00 0.00 70 1012.2
20260509061016 57 182 0.0 0.0 0.00 0.00 0.00 69 1012.3
20260509060033 58 182 0.0 1.0 0.00 0.00 0.00 69 1012.4
20260509055019 58 182 0.0 3.0 0.00 0.00 0.00 69 1012.5
20260509054043 58 182 0.0 2.0 0.00 0.00 0.00 69 1012.5
20260509053034 58 181 0.0 4.0 0.00 0.00 0.00 68 1012.5
20260509052020 58 180 0.0 2.0 0.00 0.00 0.00 67 1012.3
20260509051014 58 181 0.0 3.0 0.00 0.00 0.00 67 1012.3
20260509050017 58 182 0.0 1.0 0.00 0.00 0.00 67 1012.3
20260509045031 59 181 0.0 4.0 0.00 0.00 0.00 67 1012.4
20260509044027 59 182 0.0 6.0 0.00 0.00 0.00 67 1012.5
20260509043020 59 155 1.0 5.0 0.00 0.00 0.00 68 1012.5
20260509042014 58 145 0.0 5.0 0.00 0.00 0.00 69 1012.4
20260509041048 58 137 0.0 4.0 0.00 0.00 0.00 70 1012.3
20260509040014 58 148 1.0 4.0 0.00 0.00 0.00 72 1012.4
20260509035027 59 128 0.0 0.0 0.00 0.00 0.00 73 1012.5
20260509034021 59 128 0.0 2.0 0.00 0.00 0.00 74 1012.5
20260509033016 59 125 0.0 2.0 0.00 0.00 0.00 75 1012.7
20260509032050 59 119 0.0 1.0 0.00 0.00 0.00 75 1012.7
20260509031025 59 119 0.0 3.0 0.00 0.00 0.00 75 1012.7
20260509030032 60 136 0.0 0.0 0.00 0.00 0.00 75 1012.7
20260509025027 60 136 0.0 1.0 0.00 0.00 0.00 75 1012.8
20260509024041 60 136 0.0 0.0 0.00 0.00 0.00 75 1012.7
20260509023024 60 136 0.0 2.0 0.00 0.00 0.00 75 1012.8
20260509022018 61 136 0.0 0.0 0.00 0.00 0.00 74 1012.6
20260509021013 61 136 0.0 1.0 0.00 0.00 0.00 73 1012.7
20260509020020 62 134 0.0 1.0 0.00 0.00 0.00 71 1012.6
20260509015034 62 134 0.0 3.0 0.00 0.00 0.00 69 1012.6
20260509014027 62 155 0.0 1.0 0.00 0.00 0.00 68 1012.6
20260509013021 62 153 0.0 1.0 0.00 0.00 0.00 67 1012.7
20260509012015 62 154 0.0 0.0 0.00 0.00 0.00 67 1012.6
20260509011030 62 154 0.0 1.0 0.00 0.00 0.00 66 1012.4
20260509010015 62 154 0.0 0.0 0.00 0.00 0.00 65 1012.4
20260509005045 63 154 0.0 2.0 0.00 0.00 0.00 65 1012.4
20260509004019 63 155 0.0 3.0 0.00 0.00 0.00 64 1012.4
20260509003014 63 124 0.0 1.0 0.00 0.00 0.00 63 1012.2
20260509002028 63 126 0.0 1.0 0.00 0.00 0.00 62 1012.2
20260509001042 63 112 0.0 1.0 0.00 0.00 0.00 61 1012.0
20260509000031 64 115 0.0 3.0 0.00 0.00 0.00 60 1012.0
20260508235025 64 171 0.0 5.0 0.00 0.00 0.00 59 1011.8
20260508234040 65 140 0.0 3.0 0.00 0.00 0.00 57 1011.8
20260508233025 66 118 0.0 7.0 0.00 0.00 0.00 54 1011.8
20260508232019 68 269 0.0 2.0 0.00 0.00 0.00 53 1011.7
20260508231014 69 269 0.0 1.0 0.00 0.00 0.00 48 1011.5
20260508230023 69 269 0.0 0.0 0.00 0.00 0.00 40 1011.3
20260508225016 69 269 0.0 0.0 0.00 0.00 0.00 39 1011.3
20260508224049 69 269 0.0 2.0 0.00 0.00 0.00 39 1011.4
20260508223023 69 270 0.0 1.0 0.00 0.00 0.00 38 1011.5
20260508222018 70 270 0.0 2.0 0.00 0.00 0.00 38 1011.4
20260508221031 70 270 0.0 7.0 0.00 0.00 0.00 37 1011.4
20260508220018 70 261 1.0 6.0 0.00 0.00 0.00 35 1011.5
20260508215033 70 265 0.0 4.0 0.00 0.00 0.00 36 1011.4
20260508214016 70 261 0.0 4.0 0.00 0.00 0.00 37 1011.4
20260508213039 71 263 0.0 9.0 0.00 0.00 0.00 35 1011.4
20260508212054 71 182 0.0 6.0 0.00 0.00 0.00 35 1011.4
20260508211017 73 280 1.0 7.0 0.00 0.00 0.00 33 1011.3
20260508210034 71 234 1.0 5.0 0.00 0.00 0.00 32 1011.3
20260508205043 72 278 2.0 13.0 0.00 0.00 0.00 31 1011.3
20260508204015 73 240 4.0 11.0 0.00 0.00 0.00 31 1011.3
20260508203027 70 261 2.0 13.0 0.00 0.00 0.00 32 1011.7
20260508202021 71 244 2.0 8.0 0.00 0.00 0.00 33 1011.6
20260508201035 71 267 1.0 6.0 0.00 0.00 0.00 35 1011.6
20260508200022 71 261 3.0 8.0 0.00 0.00 0.00 33 1011.7
20260508195036 73 268 1.0 12.0 0.00 0.00 0.00 33 1011.9
20260508194029 74 267 4.0 11.0 0.00 0.00 0.00 31 1012.1
20260508193043 74 266 2.0 7.0 0.00 0.00 0.00 33 1012.2
20260508192035 72 248 1.0 9.0 0.00 0.00 0.00 32 1012.4
20260508191028 73 257 4.0 14.0 0.00 0.00 0.00 31 1012.5
20260508190014 73 262 6.0 15.0 0.00 0.00 0.00 31 1012.5
20260508185028 73 254 3.0 8.0 0.00 0.00 0.00 35 1012.6
20260508184021 73 158 1.0 10.0 0.00 0.00 0.00 34 1012.7
20260508183035 72 240 4.0 11.0 0.00 0.00 0.00 32 1012.9